Regional Weather Roundup
Issued by NWS

Home | Current Version | Previous Version | Graphics & Text | Print | Product List | Glossary On
Versions: 1 2 3 4 5 6 7 8 9 10 11 12 13 14 15 16 17 18 19 20 21 22 23 24 25 26 27 28 29 30 31 32 33 34 35 36 37 38 39 40 41 42 43 44 45 46 47 48 49 50
000
ASUS43 KMKX 031200
RWRWI

WISCONSIN REGIONAL WEATHER ROUNDUP
NATIONAL WEATHER SERVICE MILWAUKEE/SULLIVAN WI
700 AM CDT MON AUG 03 2015

NOTE: "FAIR" INDICATES FEW OR NO CLOUDS BELOW 12,000 FEET WITH NO
SIGNIFICANT WEATHER AND/OR OBSTRUCTIONS TO VISIBILITY.

WIZ001-002-006>008-014>016-023>028-031300-
NORTHWEST WISCONSIN

CITY           SKY/WX    TMP DP  RH WIND       PRES   REMARKS
SUPERIOR ARPT  CLOUDY    59  49  67 NW15      29.80R
ASHLAND        PTSUNNY   55  49  80 W6        29.78S
6HR MIN TEMP:  53; 6HR MAX TEMP:  59;

HAYWARD        CLOUDY    53  48  83 SW3       29.83R
6HR MIN TEMP:  47; 6HR MAX TEMP:  62;

SIREN          CLEAR     55  48  78 W5        29.85R
CUMBERLAND     FAIR      52  46  82 W6        29.84S
RICE LAKE      FAIR      52  48  87 W3        29.85S
CHETEK         FAIR      58  49  72 W5        29.84S
LADYSMITH      SUNNY     56  50  80 W5        29.84S
EAU CLAIRE     NOT AVBL
MENOMONIE      CLEAR     57  51  80 SW5       29.86R
NEW RICHMOND   CLEAR     55  51  89 W6        29.87S
OSCEOLA        CLEAR     52  52 100 CALM      29.90R
$$

WIZ003>005-009-010-017-018-031300-
NORTH CENTRAL WISCONSIN

CITY           SKY/WX    TMP DP  RH WIND       PRES   REMARKS
MANITOWISH WTR CLOUDY    54  51  92 W3        29.79R
ARBOR VITAE    SUNNY     57  53  87 CALM      29.79S
WOODRUFF       SUNNY     57  53  87 CALM      29.79S
RHINELANDER    MOSUNNY   54  51  90 W7        29.80S
6HR MIN TEMP:  50; 6HR MAX TEMP:  57;

EAGLE RIVER    SUNNY     52  50  92 SW6       29.78S
LAND O LAKES   SUNNY     56  50  80 W5        29.78S
PHILLIPS       SUNNY     51  48  89 CALM      29.80S
TOMAHAWK       SUNNY     49  47  93 W5        29.81S
MEDFORD        SUNNY     53  49  86 W5        29.83R
MERRILL        NOT AVBL
$$

WIZ029-030-035-036-043>047-031300-
CENTRAL WISCONSIN

CITY           SKY/WX    TMP DP  RH WIND       PRES   REMARKS
WAUSAU         SUNNY     57  50  77 NW9       29.80R
6HR MIN TEMP:  56; 6HR MAX TEMP:  63;

MOSINEE        SUNNY     55  52  88 W8        29.83R
MARSHFIELD     SUNNY     56  48  74 W5        29.84R
6HR MIN TEMP:  53; 6HR MAX TEMP:  62;

STEVENS POINT  SUNNY     56  49  77 W6        29.83R
WAUPACA        SUNNY     60  55  82 W7        29.81R
WAUTOMA        NOT AVBL
WISC RAPIDS    SUNNY     58  49  72 NW7       29.84R
6HR MIN TEMP:  56; 6HR MAX TEMP:  64;

CAMP DOUGLAS   NOT AVBL
$$

WIZ011>013-019>022-031-037>040-048>050-031300-
NORTHEAST WISCONSIN

CITY           SKY/WX    TMP DP  RH WIND       PRES   REMARKS
ANTIGO         SUNNY     51  50  97 CALM      29.81R
SHAWANO        SUNNY     58  54  86 W6        29.79R
OCONTO         SUNNY     55  55 100 W3        29.76R
STURGEON BAY   CLOUDY    61  52  72 NW8       29.78S
6HR MIN TEMP:  59; 6HR MAX TEMP:  63;

GREEN BAY      SUNNY     60  56  86 W8        29.78R
6HR MIN TEMP:  57; 6HR MAX TEMP:  64;

MANITOWOC      NOT AVBL
APPLETON       MOSUNNY   57  55  94 W9        29.80R
CLINTONVILLE   SUNNY     55  52  88 W6        29.79S
OSHKOSH        SUNNY     61  54  77 W5        29.80R
6HR MIN TEMP:  59; 6HR MAX TEMP:  66;

$$

WIZ032>034-041-042-053>061-031300-
SOUTHWEST WISCONSIN

CITY           SKY/WX    TMP DP  RH WIND       PRES   REMARKS
LA CROSSE      SUNNY     62  56  80 S3        29.86S
6HR MIN TEMP:  57; 6HR MAX TEMP:  71;

SPARTA         SUNNY     51  48  91 CALM      29.87S
VIROQUA        SUNNY     56  51  84 W6        29.89R
BOSCOBEL       SUNNY     58  56  93 CALM      29.88R
6HR MIN TEMP:  54; 6HR MAX TEMP:  73;

PRAIRIE DU CHI CLEAR     60  56  85 CALM      29.88S
PLATTEVILLE    SUNNY     60  55  85 CALM      29.88R
$$

WIZ056-057-062-063-064-067-068-031300-
SOUTH CENTRAL WISCONSIN

CITY           SKY/WX    TMP DP  RH WIND       PRES   REMARKS
REEDSBURG      SUNNY     58  52  80 NW3       29.85S
BARABOO/DELLS  SUNNY     57  49  74 CALM      29.85R
LONE ROCK      NOT AVBL
MINERAL POINT  SUNNY     61  52  72 CALM      29.88R
MADISON        MOSUNNY   64  54  69 CALM      29.85R
6HR MIN TEMP:  62; 6HR MAX TEMP:  71;

MIDDLETON      SUNNY     60  54  79 W5        29.86R
WATERTOWN      SUNNY     58  58 100 CALM      29.83R
MONROE         SUNNY     63  54  72 NW8       29.86R
JANESVILLE     SUNNY     63  61  94 NW5       29.84R
$$

WIZ051-052-058>065-066-070>072-031300-
SOUTHEAST WISCONSIN

CITY           SKY/WX    TMP DP  RH WIND       PRES   REMARKS
MILWAUKEE      MOSUNNY   67  56  67 NW7       29.81R
6HR MIN TEMP:  65; 6HR MAX TEMP:  69;

WAUKESHA       SUNNY     63  57  82 W8        29.84R
MILWAUKEE/TIMM SUNNY     63  55  77 W6        29.83R
RACINE         SUNNY     65  59  81 W8        29.83R
6HR MIN TEMP:  63; 6HR MAX TEMP:  66;

BURLINGTON     SUNNY     60  57  91 NW7       29.82R
KENOSHA        MOSUNNY   65  60  84 NW7       29.82R
6HR MIN TEMP:  62; 6HR MAX TEMP:  66;

FOND DU LAC    SUNNY     62  55  77 W8        29.81R
6HR MIN TEMP:  59; 6HR MAX TEMP:  65;

SHEBOYGAN      SUNNY     62  58  86 W7        29.80R
6HR MIN TEMP:  60; 6HR MAX TEMP:  64;

WEST BEND      SUNNY     61  54  77 W5        29.82R
JUNEAU         SUNNY     60  56  88 W3        29.84R
$$

LSZ147-162-031300-
LAKE SUPERIOR

STATION/POSITION TIME  TEMP    WIND        PRES    WAVE
                       AIR SEA DIR/SP/G            HT/PER
                 (UTC) (F)     (DEG/KT/KT) (MB)    (FT/S)
W MID LAKE BUOY  1050   58 55  260/ 14/ 16 1005.9S   1/ 3
DEVILS ISLAND    1100   58     260/ 18/ 22 1007.1R
PORT WING        1100   59     230/  7/ 10 1008.8
SAXON HARBOR     1100   62                 1007.5S
$$

LMZ867-665-643>646-031300-
LAKE MICHIGAN

STATION/POSITION TIME  TEMP    WIND        PRES    WAVE
                       AIR SEA DIR/SP/G            HT/PER
                 (UTC) (F)     (DEG/KT/KT) (MB)    (FT/S)
CHAMBERS ISLAND  1100   61     290/  6/ 11 1007.1R
S GREEN BAY BUOY 1100   61 64  280/ 12/ 14 1008.9R
N MID LAKE BUOY  1050   64 68  270/ 14/ 14 1005.3R   1/ 3
NORTHPORT PIER   1100   64     290/  6/ 11 1006.4R
SISTER BAY       1118   66     330/ 22/ 24   N/A
ALGOMA LAKESHORE 1112             CALM       N/A
KEWAUNEE LAKESHO 1100   59     290/  5/  6 1007.2R
SHEBOYGAN LAKESH 1100   64     280/ 11/ 12 1008.6R
PORT WASHINGTON  1100   64     300/  6/ 10 1009.1
ATWATER BUOY     1100   64 63  290/ 10/ 12 1010.0R
MILWAUKEE LAKESH 1100   67     300/  7/ 11   N/A
KENOSHA   LAKESH 1100   67     290/ 10/ 14 1008.5R
$$

TC  - TEMPERATURE IN CELSIUS
VSB - VISIBILITY IN STATUTE MILES
WCI - WIND CHILL INDEX
HX  - HEAT INDEX




USA.gov is the U.S. government's official web portal to all federal, state and local government web resources and services.